Time,TemperatureF,DewpointF,PressureIn,WindDirection,WindDirectionDegrees,WindSpeedMPH,WindSpeedGustMPH,Humidity,HourlyPrecipIn,Conditions,Clouds,dailyrainin,SoftwareType,DateUTC
2013-02-10 00:00:00,25.0,21.7,29.95,East,80,0.0,2.0,87,0.00,,,0.00,meteohub,2013-02-10 05:00:00,
2013-02-10 00:06:00,25.2,21.9,29.96,East,96,0.0,1.0,87,0.00,,,0.00,meteohub,2013-02-10 05:06:00,
2013-02-10 00:11:00,25.0,21.4,29.96,ENE,68,0.0,1.0,86,0.00,,,0.00,meteohub,2013-02-10 05:11:00,
2013-02-10 00:16:00,25.2,21.9,29.96,ESE,113,0.0,1.0,87,0.00,,,0.00,meteohub,2013-02-10 05:16:00,
2013-02-10 00:21:00,25.7,22.6,29.96,SE,146,0.0,1.0,88,0.00,,,0.00,meteohub,2013-02-10 05:21:00,
2013-02-10 00:26:00,25.9,22.5,29.95,SE,146,0.0,1.0,87,0.00,,,0.00,meteohub,2013-02-10 05:26:00,
2013-02-10 00:31:00,25.3,21.4,29.95,SSE,148,1.0,1.0,85,0.00,,,0.00,meteohub,2013-02-10 05:31:00,
2013-02-10 00:36:00,24.6,21.0,29.95,North,3,0.0,1.0,86,0.00,,,0.00,meteohub,2013-02-10 05:36:00,
2013-02-10 00:41:00,25.0,21.7,29.95,North,4,0.0,1.0,87,0.00,,,0.00,meteohub,2013-02-10 05:41:00,
2013-02-10 00:46:00,25.2,22.1,29.95,North,4,1.0,1.0,88,0.00,,,0.00,meteohub,2013-02-10 05:46:00,
2013-02-10 00:52:00,25.2,21.9,29.96,North,4,1.0,1.0,87,0.00,,,0.00,meteohub,2013-02-10 05:52:00,
2013-02-10 00:57:00,25.0,21.7,29.96,North,4,4.0,4.0,87,0.00,,,0.00,meteohub,2013-02-10 05:57:00,
2013-02-10 01:02:00,24.6,21.4,29.96,North,1,4.0,5.0,87,0.00,,,0.00,meteohub,2013-02-10 06:02:00,
2013-02-10 01:07:00,24.4,21.2,29.95,North,1,1.0,5.0,87,0.00,,,0.00,meteohub,2013-02-10 06:07:00,
2013-02-10 01:12:00,24.6,21.6,29.95,NE,44,2.0,5.0,88,0.00,,,0.00,meteohub,2013-02-10 06:12:00,
2013-02-10 01:17:00,25.0,21.9,29.95,NNE,19,1.0,4.0,88,0.00,,,0.00,meteohub,2013-02-10 06:17:00,
2013-02-10 01:22:00,25.0,21.9,29.95,North,5,3.0,4.0,88,0.00,,,0.00,meteohub,2013-02-10 06:22:00,
2013-02-10 01:27:00,24.6,21.4,29.95,NNE,15,2.0,4.0,87,0.00,,,0.00,meteohub,2013-02-10 06:27:00,
2013-02-10 01:32:00,24.6,21.6,29.95,NE,43,0.0,4.0,88,0.00,,,0.00,meteohub,2013-02-10 06:32:00,
2013-02-10 01:37:00,25.0,22.3,29.95,NNE,20,1.0,3.0,89,0.00,,,0.00,meteohub,2013-02-10 06:37:00,
2013-02-10 01:42:00,24.8,21.7,29.95,North,5,3.0,3.0,88,0.00,,,0.00,meteohub,2013-02-10 06:42:00,
2013-02-10 01:47:00,24.4,21.2,29.95,NE,54,1.0,3.0,87,0.00,,,0.00,meteohub,2013-02-10 06:47:00,
2013-02-10 01:52:00,25.0,22.5,29.95,ENE,65,2.0,3.0,90,0.00,,,0.00,meteohub,2013-02-10 06:52:00,
2013-02-10 01:57:00,25.5,23.0,29.96,East,86,3.0,3.0,90,0.00,,,0.00,meteohub,2013-02-10 06:57:00,
2013-02-10 02:02:00,25.9,22.5,29.96,ENE,74,5.0,5.0,87,0.00,,,0.00,meteohub,2013-02-10 07:02:00,
2013-02-10 02:07:00,26.1,23.2,29.96,East,94,3.0,7.0,89,0.00,,,0.00,meteohub,2013-02-10 07:07:00,
2013-02-10 02:12:00,26.2,23.4,29.96,East,82,3.0,7.0,89,0.00,,,0.00,meteohub,2013-02-10 07:12:00,
2013-02-10 02:17:00,26.4,23.4,29.96,ENE,76,3.0,7.0,88,0.00,,,0.00,meteohub,2013-02-10 07:17:00,
2013-02-10 02:22:00,26.6,23.5,29.96,ENE,72,3.0,4.0,88,0.00,,,0.00,meteohub,2013-02-10 07:22:00,
2013-02-10 02:27:00,26.6,23.2,29.96,NE,56,4.0,4.0,87,0.00,,,0.00,meteohub,2013-02-10 07:27:00,
2013-02-10 02:32:00,26.2,22.8,29.96,ENE,58,4.0,5.0,87,0.00,,,0.00,meteohub,2013-02-10 07:32:00,
2013-02-10 02:37:00,25.7,22.5,29.96,ENE,58,5.0,5.0,87,0.00,,,0.00,meteohub,2013-02-10 07:37:00,
2013-02-10 02:42:00,25.3,22.1,29.97,ENE,57,5.0,6.0,87,0.00,,,0.00,meteohub,2013-02-10 07:42:00,
2013-02-10 02:47:00,25.2,22.1,29.96,ENE,60,5.0,6.0,88,0.00,,,0.00,meteohub,2013-02-10 07:47:00,
2013-02-10 02:52:00,25.2,22.1,29.96,ENE,58,4.0,6.0,88,0.00,,,0.00,meteohub,2013-02-10 07:52:00,
2013-02-10 02:57:00,25.3,22.6,29.96,East,98,5.0,6.0,89,0.00,,,0.00,meteohub,2013-02-10 07:57:00,
2013-02-10 03:02:00,26.1,23.5,29.96,ESE,102,7.0,8.0,90,0.00,,,0.00,meteohub,2013-02-10 08:02:00,
2013-02-10 03:07:00,26.8,24.3,29.96,East,94,8.0,10.0,90,0.00,,,0.00,meteohub,2013-02-10 08:07:00,
2013-02-10 03:12:00,26.2,23.2,29.96,ENE,70,8.0,11.0,88,0.00,,,0.00,meteohub,2013-02-10 08:12:00,
2013-02-10 03:17:00,25.9,22.8,29.96,ENE,70,6.0,11.0,88,0.00,,,0.00,meteohub,2013-02-10 08:17:00,
2013-02-10 03:22:00,25.5,22.5,29.96,ENE,62,7.0,10.0,88,0.00,,,0.00,meteohub,2013-02-10 08:22:00,
2013-02-10 03:27:00,25.2,22.1,29.96,ENE,60,7.0,9.0,88,0.00,,,0.00,meteohub,2013-02-10 08:27:00,
2013-02-10 03:32:00,25.0,22.3,29.96,NE,56,7.0,9.0,89,0.00,,,0.00,meteohub,2013-02-10 08:32:00,
2013-02-10 03:37:00,24.8,22.1,29.96,ENE,64,9.0,11.0,89,0.00,,,0.00,meteohub,2013-02-10 08:37:00,
2013-02-10 03:42:00,25.2,22.6,29.96,ENE,62,7.0,11.0,90,0.00,,,0.00,meteohub,2013-02-10 08:42:00,
2013-02-10 03:47:00,26.1,23.7,29.96,ENE,70,10.0,11.0,91,0.00,,,0.00,meteohub,2013-02-10 08:47:00,
2013-02-10 03:52:00,26.2,23.4,29.96,ENE,75,8.0,11.0,89,0.00,,,0.00,meteohub,2013-02-10 08:52:00,
2013-02-10 03:57:00,26.1,23.2,29.97,ENE,72,7.0,11.0,89,0.00,,,0.00,meteohub,2013-02-10 08:57:00,
2013-02-10 04:02:00,25.9,23.0,29.97,ENE,67,9.0,11.0,89,0.00,,,0.00,meteohub,2013-02-10 09:02:00,
2013-02-10 04:07:00,25.7,23.0,29.97,ENE,74,7.0,11.0,89,0.00,,,0.00,meteohub,2013-02-10 09:07:00,
2013-02-10 04:12:00,25.5,22.8,29.96,ENE,65,7.0,10.0,89,0.00,,,0.00,meteohub,2013-02-10 09:12:00,
2013-02-10 04:17:00,25.3,22.6,29.96,NE,56,5.0,10.0,89,0.00,,,0.00,meteohub,2013-02-10 09:17:00,
2013-02-10 04:22:00,25.2,22.5,29.96,ENE,77,5.0,10.0,89,0.00,,,0.00,meteohub,2013-02-10 09:22:00,
2013-02-10 04:27:00,25.3,22.8,29.96,East,84,7.0,9.0,90,0.00,,,0.00,meteohub,2013-02-10 09:27:00,
2013-02-10 04:32:00,25.5,23.0,29.96,ENE,72,7.0,8.0,90,0.00,,,0.00,meteohub,2013-02-10 09:32:00,
2013-02-10 04:37:00,26.1,23.5,29.96,East,97,12.0,12.0,90,0.00,,,0.00,meteohub,2013-02-10 09:37:00,
2013-02-10 04:42:00,26.4,23.5,29.96,East,84,11.0,13.0,89,0.00,,,0.00,meteohub,2013-02-10 09:42:00,
2013-02-10 04:47:00,26.6,23.7,29.96,East,86,9.0,13.0,89,0.00,,,0.00,meteohub,2013-02-10 09:47:00,
2013-02-10 04:52:00,26.6,23.7,29.95,ENE,72,8.0,13.0,89,0.00,,,0.00,meteohub,2013-02-10 09:52:00,
2013-02-10 04:57:00,26.8,23.9,29.95,East,100,13.0,13.0,89,0.00,,,0.00,meteohub,2013-02-10 09:57:00,
2013-02-10 05:02:00,27.1,24.3,29.95,East,94,13.0,15.0,89,0.00,,,0.00,meteohub,2013-02-10 10:02:00,
2013-02-10 05:07:00,27.3,24.3,29.94,East,101,13.0,16.0,88,0.00,,,0.00,meteohub,2013-02-10 10:07:00,
2013-02-10 05:12:00,27.3,24.3,29.94,East,96,12.0,16.0,88,0.00,,,0.00,meteohub,2013-02-10 10:12:00,
2013-02-10 05:17:00,27.3,24.3,29.94,East,84,11.0,16.0,88,0.00,,,0.00,meteohub,2013-02-10 10:17:00,
2013-02-10 05:22:00,27.7,24.8,29.94,ESE,105,14.0,15.0,89,0.00,,,0.00,meteohub,2013-02-10 10:22:00,
2013-02-10 05:27:00,28.0,25.2,29.94,ESE,113,14.0,16.0,89,0.00,,,0.00,meteohub,2013-02-10 10:27:00,
2013-02-10 05:32:00,28.6,25.7,29.94,East,101,10.0,16.0,89,0.00,,,0.00,meteohub,2013-02-10 10:32:00,
2013-02-10 05:37:00,28.8,25.9,29.94,ESE,105,14.0,16.0,89,0.00,,,0.00,meteohub,2013-02-10 10:37:00,
2013-02-10 05:42:00,28.8,25.9,29.95,East,99,12.0,15.0,89,0.00,,,0.00,meteohub,2013-02-10 10:42:00,
2013-02-10 05:47:00,28.8,25.9,29.94,ESE,104,11.0,15.0,89,0.00,,,0.00,meteohub,2013-02-10 10:47:00,
2013-02-10 05:52:00,28.9,26.1,29.94,ESE,106,10.0,15.0,89,0.00,,,0.00,meteohub,2013-02-10 10:52:00,
2013-02-10 05:57:00,28.9,26.1,29.95,ESE,103,12.0,14.0,89,0.00,,,0.00,meteohub,2013-02-10 10:57:00,
2013-02-10 06:02:00,29.1,26.2,29.95,SE,129,11.0,15.0,89,0.00,,,0.00,meteohub,2013-02-10 11:02:00,
2013-02-10 06:07:00,29.1,26.2,29.95,ESE,112,15.0,15.0,89,0.00,,,0.00,meteohub,2013-02-10 11:07:00,
2013-02-10 06:12:00,29.3,26.4,29.95,SE,131,7.0,16.0,89,0.00,,,0.00,meteohub,2013-02-10 11:12:00,
2013-02-10 06:17:00,29.3,26.4,29.95,ESE,115,13.0,18.0,89,0.00,,,0.00,meteohub,2013-02-10 11:17:00,
2013-02-10 06:22:00,29.1,26.2,29.95,ESE,117,11.0,18.0,89,0.00,,,0.00,meteohub,2013-02-10 11:22:00,
2013-02-10 06:27:00,29.1,26.6,29.95,ESE,106,9.0,18.0,90,0.00,,,0.00,meteohub,2013-02-10 11:27:00,
2013-02-10 06:32:00,29.1,26.6,29.95,ESE,104,13.0,17.0,90,0.00,,,0.00,meteohub,2013-02-10 11:32:00,
2013-02-10 06:37:00,29.1,26.8,29.95,ENE,75,9.0,17.0,91,0.00,,,0.00,meteohub,2013-02-10 11:37:00,
2013-02-10 06:42:00,29.1,26.8,29.95,ESE,113,14.0,17.0,91,0.00,,,0.00,meteohub,2013-02-10 11:42:00,
2013-02-10 06:47:00,29.5,27.0,29.95,ESE,122,16.0,17.0,90,0.00,,,0.00,meteohub,2013-02-10 11:47:00,
2013-02-10 06:52:00,29.5,26.6,29.95,ESE,123,17.0,18.0,89,0.00,,,0.00,meteohub,2013-02-10 11:52:00,
2013-02-10 06:57:00,29.5,26.6,29.95,ESE,121,18.0,22.0,89,0.00,,,0.00,meteohub,2013-02-10 11:57:00,
2013-02-10 07:02:00,29.3,26.4,29.95,SE,124,15.0,22.0,89,0.00,,,0.00,meteohub,2013-02-10 12:02:00,
2013-02-10 07:07:00,29.3,26.8,29.95,SE,127,24.0,24.0,90,0.00,,,0.00,meteohub,2013-02-10 12:07:00,
2013-02-10 07:12:00,29.1,26.6,29.95,ESE,123,18.0,24.0,90,0.00,,,0.00,meteohub,2013-02-10 12:12:00,
2013-02-10 07:17:00,29.1,26.8,29.95,ESE,122,19.0,24.0,91,0.00,,,0.00,meteohub,2013-02-10 12:17:00,
2013-02-10 07:22:00,28.9,26.6,29.95,ESE,122,15.0,24.0,91,0.00,,,0.00,meteohub,2013-02-10 12:22:00,
2013-02-10 07:27:00,28.9,26.6,29.95,SE,139,7.0,22.0,91,0.00,,,0.00,meteohub,2013-02-10 12:27:00,
2013-02-10 07:32:00,28.9,26.6,29.95,SE,125,24.0,24.0,91,0.00,,,0.00,meteohub,2013-02-10 12:32:00,
2013-02-10 07:37:00,28.8,26.8,29.96,SE,124,16.0,24.0,92,0.00,,,0.00,meteohub,2013-02-10 12:37:00,
2013-02-10 07:42:00,28.8,26.8,29.96,SE,126,17.0,24.0,92,0.00,,,0.00,meteohub,2013-02-10 12:42:00,
2013-02-10 07:47:00,28.6,26.6,29.96,SE,129,17.0,24.0,92,0.00,,,0.00,meteohub,2013-02-10 12:47:00,
2013-02-10 07:52:00,28.6,26.6,29.96,SE,136,17.0,23.0,92,0.00,,,0.00,meteohub,2013-02-10 12:52:00,
2013-02-10 07:58:00,28.6,26.2,29.96,SE,125,25.0,25.0,91,0.00,,,0.00,meteohub,2013-02-10 12:58:00,
2013-02-10 08:03:00,28.4,26.1,29.96,ESE,121,19.0,26.0,91,0.00,,,0.00,meteohub,2013-02-10 13:03:00,
2013-02-10 08:09:00,28.0,25.7,29.96,SE,135,16.0,27.0,91,0.00,,,0.00,meteohub,2013-02-10 13:09:00,
2013-02-10 08:14:00,27.9,25.3,29.96,SE,135,19.0,27.0,90,0.00,,,0.00,meteohub,2013-02-10 13:14:00,
2013-02-10 08:19:00,27.7,24.8,29.96,SE,126,22.0,27.0,89,0.00,,,0.00,meteohub,2013-02-10 13:19:00,
2013-02-10 08:24:00,27.7,24.6,29.95,SE,126,19.0,24.0,88,0.00,,,0.00,meteohub,2013-02-10 13:24:00,
2013-02-10 08:30:00,27.5,24.4,29.96,SE,127,20.0,24.0,88,0.00,,,0.00,meteohub,2013-02-10 13:30:00,
2013-02-10 08:35:00,27.3,24.3,29.96,SSE,147,20.0,24.0,88,0.00,,,0.00,meteohub,2013-02-10 13:35:00,
2013-02-10 08:40:00,27.3,23.9,29.96,SE,145,15.0,22.0,87,0.00,,,0.00,meteohub,2013-02-10 13:40:00,
2013-02-10 08:45:00,27.3,23.9,29.96,ESE,123,18.0,23.0,87,0.00,,,0.00,meteohub,2013-02-10 13:45:00,
2013-02-10 08:50:00,27.3,23.9,29.96,SE,124,19.0,25.0,87,0.00,,,0.00,meteohub,2013-02-10 13:50:00,
2013-02-10 08:55:00,27.3,23.7,29.96,ESE,122,18.0,25.0,86,0.00,,,0.00,meteohub,2013-02-10 13:55:00,
2013-02-10 09:00:00,27.1,23.5,29.96,ESE,120,23.0,27.0,86,0.00,,,0.00,meteohub,2013-02-10 14:00:00,
2013-02-10 09:05:00,27.1,23.2,29.96,ESE,121,26.0,27.0,85,0.00,,,0.00,meteohub,2013-02-10 14:05:00,
2013-02-10 09:10:00,27.0,22.5,29.97,SE,129,20.0,27.0,83,0.00,,,0.00,meteohub,2013-02-10 14:10:00,
2013-02-10 09:16:00,27.0,22.8,29.97,ESE,122,28.0,28.0,84,0.00,,,0.00,meteohub,2013-02-10 14:16:00,
2013-02-10 09:21:00,26.8,22.3,29.97,SE,141,23.0,28.0,83,0.00,,,0.00,meteohub,2013-02-10 14:21:00,
2013-02-10 09:26:00,26.8,22.3,29.97,SE,132,22.0,28.0,83,0.00,,,0.00,meteohub,2013-02-10 14:26:00,
2013-02-10 09:31:00,26.4,21.9,29.98,SE,131,13.0,28.0,83,0.00,,,0.00,meteohub,2013-02-10 14:31:00,
2013-02-10 09:37:00,26.4,22.3,29.98,SE,144,18.0,28.0,84,0.00,,,0.00,meteohub,2013-02-10 14:37:00,
2013-02-10 09:42:00,26.2,22.1,29.98,SE,127,28.0,28.0,84,0.00,,,0.00,meteohub,2013-02-10 14:42:00,
2013-02-10 09:47:00,25.9,21.7,29.98,SE,134,27.0,28.0,84,0.00,,,0.00,meteohub,2013-02-10 14:47:00,
2013-02-10 09:52:00,25.9,21.9,29.98,SE,125,19.0,28.0,85,0.00,,,0.00,meteohub,2013-02-10 14:52:00,
2013-02-10 09:57:00,25.7,21.7,29.99,SE,134,18.0,28.0,85,0.00,,,0.00,meteohub,2013-02-10 14:57:00,
2013-02-10 10:02:00,25.5,21.9,29.99,SE,130,13.0,28.0,86,0.00,,,0.00,meteohub,2013-02-10 15:02:00,
2013-02-10 10:07:00,25.3,21.7,29.99,SE,130,14.0,25.0,86,0.00,,,0.00,meteohub,2013-02-10 15:07:00,
2013-02-10 10:12:00,25.3,21.7,29.99,ESE,122,18.0,26.0,86,0.00,,,0.00,meteohub,2013-02-10 15:12:00,
2013-02-10 10:17:00,25.2,21.6,29.99,SE,137,24.0,27.0,86,0.00,,,0.00,meteohub,2013-02-10 15:17:00,
2013-02-10 10:22:00,25.0,21.4,29.99,ESE,117,22.0,28.0,86,0.00,,,0.00,meteohub,2013-02-10 15:22:00,
2013-02-10 10:27:00,25.0,21.4,29.99,SE,144,16.0,28.0,86,0.00,,,0.00,meteohub,2013-02-10 15:27:00,
2013-02-10 10:32:00,25.0,21.7,30.00,SE,135,19.0,28.0,87,0.00,,,0.00,meteohub,2013-02-10 15:32:00,
2013-02-10 10:37:00,25.0,21.4,30.00,SE,128,15.0,25.0,86,0.00,,,0.00,meteohub,2013-02-10 15:37:00,
2013-02-10 10:42:00,25.0,21.7,30.00,SE,130,20.0,25.0,87,0.00,,,0.00,meteohub,2013-02-10 15:42:00,
2013-02-10 10:47:00,24.8,21.6,30.00,SE,127,10.0,25.0,87,0.00,,,0.00,meteohub,2013-02-10 15:47:00,
2013-02-10 10:52:00,24.8,21.2,30.01,SE,142,20.0,21.0,86,0.00,,,0.00,meteohub,2013-02-10 15:52:00,
2013-02-10 10:57:00,24.8,21.2,30.00,SE,129,21.0,21.0,86,0.00,,,0.00,meteohub,2013-02-10 15:57:00,
2013-02-10 11:02:00,24.8,21.2,30.01,SSE,156,18.0,23.0,86,0.00,,,0.00,meteohub,2013-02-10 16:02:00,
2013-02-10 11:07:00,24.6,20.8,30.01,SE,139,16.0,23.0,85,0.00,,,0.00,meteohub,2013-02-10 16:07:00,
2013-02-10 11:12:00,24.6,20.8,30.01,SE,132,23.0,26.0,85,0.00,,,0.00,meteohub,2013-02-10 16:12:00,
2013-02-10 11:17:00,24.6,20.8,30.01,SE,138,16.0,26.0,85,0.00,,,0.00,meteohub,2013-02-10 16:17:00,
2013-02-10 11:22:00,24.6,20.5,30.01,South,181,12.0,28.0,84,0.00,,,0.00,meteohub,2013-02-10 16:22:00,
2013-02-10 11:27:00,24.6,20.5,30.01,SE,132,13.0,28.0,84,0.00,,,0.00,meteohub,2013-02-10 16:27:00,
2013-02-10 11:32:00,24.4,19.9,30.02,SE,139,20.0,28.0,83,0.00,,,0.00,meteohub,2013-02-10 16:32:00,
2013-02-10 11:37:00,24.4,20.3,30.02,SE,131,17.0,27.0,84,0.00,,,0.00,meteohub,2013-02-10 16:37:00,
2013-02-10 11:42:00,24.4,20.3,30.02,SE,127,21.0,27.0,84,0.00,,,0.00,meteohub,2013-02-10 16:42:00,
2013-02-10 11:47:00,24.4,20.3,30.02,SE,134,20.0,26.0,84,0.00,,,0.00,meteohub,2013-02-10 16:47:00,
2013-02-10 11:52:00,24.3,20.1,30.02,SE,133,20.0,24.0,84,0.00,,,0.00,meteohub,2013-02-10 16:52:00,
2013-02-10 11:57:00,24.1,19.9,30.02,SE,133,17.0,24.0,84,0.00,,,0.00,meteohub,2013-02-10 16:57:00,
2013-02-10 12:02:00,24.1,19.9,30.02,SE,126,20.0,23.0,84,0.00,,,0.00,meteohub,2013-02-10 17:02:00,
2013-02-10 12:07:00,24.1,19.9,30.03,SE,142,18.0,25.0,84,0.00,,,0.00,meteohub,2013-02-10 17:07:00,
2013-02-10 12:13:00,24.1,19.9,30.03,SE,131,18.0,25.0,84,0.00,,,0.00,meteohub,2013-02-10 17:13:00,
2013-02-10 12:18:00,23.7,19.6,30.03,SE,131,17.0,25.0,84,0.00,,,0.00,meteohub,2013-02-10 17:18:00,
2013-02-10 12:23:00,23.7,19.6,30.03,SE,138,15.0,27.0,84,0.00,,,0.00,meteohub,2013-02-10 17:23:00,
2013-02-10 12:28:00,23.5,19.4,30.03,SE,135,21.0,27.0,84,0.00,,,0.00,meteohub,2013-02-10 17:28:00,
2013-02-10 12:33:00,23.4,19.2,30.03,SE,139,18.0,25.0,84,0.00,,,0.00,meteohub,2013-02-10 17:33:00,
2013-02-10 12:38:00,23.2,19.4,30.03,ESE,121,22.0,26.0,85,0.00,,,0.00,meteohub,2013-02-10 17:38:00,
2013-02-10 12:44:00,23.0,18.9,30.03,SE,127,23.0,26.0,84,0.00,,,0.00,meteohub,2013-02-10 17:44:00,
2013-02-10 12:49:00,22.8,18.7,30.03,ESE,122,25.0,28.0,84,0.00,,,0.00,meteohub,2013-02-10 17:49:00,
2013-02-10 12:54:00,22.8,18.5,30.03,ESE,121,24.0,28.0,83,0.00,,,0.00,meteohub,2013-02-10 17:54:00,
2013-02-10 12:59:00,22.6,18.5,30.03,SE,127,19.0,28.0,84,0.00,,,0.00,meteohub,2013-02-10 17:59:00,
2013-02-10 13:04:00,22.6,18.3,30.04,ESE,118,25.0,27.0,83,0.00,,,0.00,meteohub,2013-02-10 18:04:00,
2013-02-10 13:09:00,22.6,18.3,30.04,ESE,121,23.0,28.0,83,0.00,,,0.00,meteohub,2013-02-10 18:09:00,
2013-02-10 13:14:00,22.5,18.1,30.04,SE,124,25.0,29.0,83,0.00,,,0.00,meteohub,2013-02-10 18:14:00,
2013-02-10 13:19:00,22.6,18.5,30.04,ESE,122,22.0,29.0,84,0.00,,,0.00,meteohub,2013-02-10 18:19:00,
2013-02-10 13:24:00,22.5,18.3,30.03,ESE,122,27.0,28.0,84,0.00,,,0.00,meteohub,2013-02-10 18:24:00,
2013-02-10 13:30:00,22.5,18.7,30.03,ESE,120,22.0,28.0,85,0.00,,,0.00,meteohub,2013-02-10 18:30:00,
2013-02-10 13:35:00,22.5,18.7,30.03,ESE,116,24.0,27.0,85,0.00,,,0.00,meteohub,2013-02-10 18:35:00,
2013-02-10 13:40:00,22.5,18.7,30.03,ESE,123,25.0,29.0,85,0.00,,,0.00,meteohub,2013-02-10 18:40:00,
2013-02-10 13:45:00,22.3,18.1,30.03,ESE,120,25.0,29.0,84,0.00,,,0.00,meteohub,2013-02-10 18:45:00,
2013-02-10 13:50:00,22.3,18.1,30.03,ESE,116,31.0,31.0,84,0.00,,,0.00,meteohub,2013-02-10 18:50:00,
2013-02-10 13:55:00,21.9,17.6,30.02,ESE,120,26.0,31.0,83,0.00,,,0.00,meteohub,2013-02-10 18:55:00,
2013-02-10 14:00:00,21.9,17.6,30.02,ESE,119,27.0,31.0,83,0.00,,,0.00,meteohub,2013-02-10 19:00:00,
2013-02-10 14:05:00,21.7,17.6,30.02,SE,127,24.0,31.0,84,0.00,,,0.00,meteohub,2013-02-10 19:05:00,
2013-02-10 14:11:00,21.4,17.2,30.02,SE,126,28.0,31.0,84,0.00,,,0.00,meteohub,2013-02-10 19:11:00,
2013-02-10 14:16:00,21.0,16.7,30.02,ESE,122,27.0,34.0,83,0.00,,,0.00,meteohub,2013-02-10 19:16:00,
2013-02-10 14:21:00,21.0,16.3,30.03,ESE,120,23.0,34.0,82,0.00,,,0.00,meteohub,2013-02-10 19:21:00,
2013-02-10 14:26:00,21.0,16.7,30.03,ESE,120,24.0,34.0,83,0.00,,,0.00,meteohub,2013-02-10 19:26:00,
2013-02-10 14:31:00,21.2,17.1,30.03,ESE,121,26.0,31.0,84,0.00,,,0.00,meteohub,2013-02-10 19:31:00,
2013-02-10 14:36:00,21.0,16.7,30.03,ESE,123,24.0,31.0,83,0.00,,,0.00,meteohub,2013-02-10 19:36:00,
2013-02-10 14:41:00,20.8,16.5,30.03,ESE,118,24.0,29.0,83,0.00,,,0.00,meteohub,2013-02-10 19:41:00,
2013-02-10 14:47:00,20.8,16.5,30.03,ESE,122,26.0,30.0,83,0.00,,,0.00,meteohub,2013-02-10 19:47:00,
2013-02-10 14:52:00,20.5,16.2,30.03,ESE,122,21.0,31.0,83,0.00,,,0.00,meteohub,2013-02-10 19:52:00,
2013-02-10 14:57:00,20.7,16.3,30.03,ESE,123,23.0,31.0,83,0.00,,,0.00,meteohub,2013-02-10 19:57:00,
2013-02-10 15:02:00,20.8,16.7,30.03,SE,132,23.0,31.0,84,0.00,,,0.00,meteohub,2013-02-10 20:02:00,
2013-02-10 15:07:00,20.7,16.3,30.03,SE,124,22.0,27.0,83,0.00,,,0.00,meteohub,2013-02-10 20:07:00,
2013-02-10 15:12:00,20.7,16.3,30.03,SE,127,21.0,27.0,83,0.00,,,0.00,meteohub,2013-02-10 20:12:00,
2013-02-10 15:17:00,20.8,16.5,30.03,ESE,118,23.0,27.0,83,0.00,,,0.00,meteohub,2013-02-10 20:17:00,
2013-02-10 15:22:00,20.8,16.5,30.03,SE,131,23.0,26.0,83,0.00,,,0.00,meteohub,2013-02-10 20:22:00,
2013-02-10 15:27:00,20.8,16.5,30.03,ESE,112,20.0,26.0,83,0.00,,,0.00,meteohub,2013-02-10 20:27:00,
2013-02-10 15:32:00,20.7,16.0,30.03,ESE,121,24.0,29.0,82,0.00,,,0.00,meteohub,2013-02-10 20:32:00,
2013-02-10 15:37:00,20.5,16.2,30.03,SE,131,15.0,29.0,83,0.00,,,0.00,meteohub,2013-02-10 20:37:00,
2013-02-10 15:42:00,20.1,15.4,30.04,SE,124,22.0,29.0,82,0.00,,,0.00,meteohub,2013-02-10 20:42:00,
2013-02-10 15:47:00,20.1,15.4,30.04,ESE,122,20.0,30.0,82,0.00,,,0.00,meteohub,2013-02-10 20:47:00,
2013-02-10 15:52:00,19.9,15.6,30.04,ESE,118,27.0,30.0,83,0.00,,,0.00,meteohub,2013-02-10 20:52:00,
2013-02-10 15:59:00,19.9,15.6,30.03,ESE,120,25.0,30.0,83,0.00,,,0.00,meteohub,2013-02-10 20:59:00,
2013-02-10 16:05:00,20.1,15.8,30.03,ESE,121,19.0,28.0,83,0.00,,,0.00,meteohub,2013-02-10 21:05:00,
2013-02-10 16:10:00,20.1,16.0,30.03,ESE,123,21.0,28.0,84,0.00,,,0.00,meteohub,2013-02-10 21:10:00,
2013-02-10 16:15:00,20.3,16.0,30.04,ESE,120,18.0,27.0,83,0.00,,,0.00,meteohub,2013-02-10 21:15:00,
2013-02-10 16:20:00,20.1,15.8,30.04,ESE,122,20.0,25.0,83,0.00,,,0.00,meteohub,2013-02-10 21:20:00,
2013-02-10 16:25:00,20.1,15.8,30.04,ESE,115,20.0,23.0,83,0.00,,,0.00,meteohub,2013-02-10 21:25:00,
2013-02-10 16:30:00,20.1,15.8,30.04,ESE,119,19.0,26.0,83,0.00,,,0.00,meteohub,2013-02-10 21:30:00,
2013-02-10 16:35:00,19.9,15.6,30.04,SE,124,26.0,26.0,83,0.00,,,0.00,meteohub,2013-02-10 21:35:00,
2013-02-10 16:40:00,20.1,16.0,30.04,ESE,116,25.0,28.0,84,0.00,,,0.00,meteohub,2013-02-10 21:40:00,
2013-02-10 16:45:00,20.1,16.0,30.04,ESE,121,21.0,28.0,84,0.00,,,0.00,meteohub,2013-02-10 21:45:00,
2013-02-10 16:50:00,19.9,15.6,30.04,SE,128,20.0,27.0,83,0.00,,,0.00,meteohub,2013-02-10 21:50:00,
2013-02-10 16:56:00,19.9,16.0,30.04,SE,124,24.0,29.0,84,0.00,,,0.00,meteohub,2013-02-10 21:56:00,
2013-02-10 17:01:00,19.9,16.0,30.04,ESE,122,24.0,29.0,84,0.00,,,0.00,meteohub,2013-02-10 22:01:00,
2013-02-10 17:06:00,19.9,16.0,30.04,ESE,121,28.0,29.0,84,0.00,,,0.00,meteohub,2013-02-10 22:06:00,
2013-02-10 17:11:00,19.9,16.0,30.05,SE,124,23.0,29.0,84,0.00,,,0.00,meteohub,2013-02-10 22:11:00,
2013-02-10 17:16:00,19.9,16.0,30.05,ESE,117,21.0,28.0,84,0.00,,,0.00,meteohub,2013-02-10 22:16:00,
2013-02-10 17:21:00,20.1,16.3,30.05,SE,126,22.0,28.0,85,0.00,,,0.00,meteohub,2013-02-10 22:21:00,
2013-02-10 17:27:00,20.1,16.3,30.05,ESE,122,18.0,27.0,85,0.00,,,0.00,meteohub,2013-02-10 22:27:00,
2013-02-10 17:32:00,20.1,16.3,30.05,ESE,120,21.0,27.0,85,0.00,,,0.00,meteohub,2013-02-10 22:32:00,
2013-02-10 17:37:00,20.1,16.3,30.06,SE,124,18.0,26.0,85,0.00,,,0.00,meteohub,2013-02-10 22:37:00,
2013-02-10 17:42:00,19.9,16.2,30.06,ESE,115,16.0,26.0,85,0.00,,,0.00,meteohub,2013-02-10 22:42:00,
2013-02-10 17:47:00,19.9,16.2,30.06,SE,124,21.0,23.0,85,0.00,,,0.00,meteohub,2013-02-10 22:47:00,
2013-02-10 17:52:00,20.1,16.3,30.06,ESE,106,17.0,23.0,85,0.00,,,0.00,meteohub,2013-02-10 22:52:00,
2013-02-10 17:57:00,20.1,16.3,30.06,ESE,118,20.0,23.0,85,0.00,,,0.00,meteohub,2013-02-10 22:57:00,
2013-02-10 18:02:00,20.1,16.3,30.07,East,96,23.0,24.0,85,0.00,,,0.00,meteohub,2013-02-10 23:02:00,
2013-02-10 18:07:00,20.1,16.3,30.07,ESE,120,16.0,24.0,85,0.00,,,0.00,meteohub,2013-02-10 23:07:00,
2013-02-10 18:12:00,20.1,16.7,30.07,ESE,123,14.0,24.0,86,0.00,,,0.00,meteohub,2013-02-10 23:12:00,
2013-02-10 18:17:00,20.1,16.3,30.07,SE,127,18.0,24.0,85,0.00,,,0.00,meteohub,2013-02-10 23:17:00,
2013-02-10 18:22:00,20.1,16.7,30.07,SE,141,9.0,24.0,86,0.00,,,0.00,meteohub,2013-02-10 23:22:00,
2013-02-10 18:27:00,20.1,16.7,30.08,SE,131,14.0,22.0,86,0.00,,,0.00,meteohub,2013-02-10 23:27:00,
2013-02-10 18:32:00,20.3,16.7,30.09,ESE,121,14.0,22.0,86,0.00,,,0.00,meteohub,2013-02-10 23:32:00,
2013-02-10 18:38:00,20.3,16.7,30.09,SSE,151,11.0,19.0,86,0.00,,,0.00,meteohub,2013-02-10 23:38:00,
2013-02-10 18:43:00,20.5,16.9,30.09,SE,125,11.0,19.0,86,0.00,,,0.00,meteohub,2013-02-10 23:43:00,
2013-02-10 18:49:00,20.3,16.7,30.09,ESE,123,17.0,19.0,86,0.00,,,0.00,meteohub,2013-02-10 23:49:00,
2013-02-10 18:54:00,20.5,17.2,30.09,SE,135,13.0,19.0,87,0.00,,,0.00,meteohub,2013-02-10 23:54:00,
2013-02-10 18:59:00,20.5,17.2,30.09,SE,125,12.0,19.0,87,0.00,,,0.00,meteohub,2013-02-10 23:59:00,
2013-02-10 19:04:00,20.5,17.2,30.09,SE,135,12.0,17.0,87,0.00,,,0.00,meteohub,2013-02-11 00:04:00,
2013-02-10 19:09:00,20.5,17.2,30.09,ESE,122,14.0,17.0,87,0.00,,,0.00,meteohub,2013-02-11 00:09:00,
2013-02-10 19:14:00,20.5,17.4,30.09,SE,127,15.0,17.0,88,0.00,,,0.00,meteohub,2013-02-11 00:14:00,
2013-02-10 19:19:00,20.5,17.4,30.09,SE,130,15.0,17.0,88,0.00,,,0.00,meteohub,2013-02-11 00:19:00,
2013-02-10 19:24:00,20.7,17.4,30.09,SE,132,12.0,17.0,87,0.00,,,0.00,meteohub,2013-02-11 00:24:00,
2013-02-10 19:29:00,20.5,17.2,30.09,SE,139,13.0,17.0,87,0.00,,,0.00,meteohub,2013-02-11 00:29:00,
2013-02-10 19:34:00,20.7,17.4,30.10,SE,127,13.0,17.0,87,0.00,,,0.00,meteohub,2013-02-11 00:34:00,
2013-02-10 19:40:00,20.7,17.4,30.10,SE,131,15.0,17.0,87,0.00,,,0.00,meteohub,2013-02-11 00:40:00,
2013-02-10 19:45:00,20.5,17.2,30.10,ESE,122,12.0,18.0,87,0.00,,,0.00,meteohub,2013-02-11 00:45:00,
2013-02-10 19:50:00,20.5,17.2,30.10,SE,128,14.0,18.0,87,0.00,,,0.00,meteohub,2013-02-11 00:50:00,
2013-02-10 19:55:00,20.5,17.2,30.10,SE,124,15.0,20.0,87,0.00,,,0.00,meteohub,2013-02-11 00:55:00,
2013-02-10 20:00:00,20.5,17.2,30.10,SE,128,18.0,20.0,87,0.00,,,0.00,meteohub,2013-02-11 01:00:00,
2013-02-10 20:05:00,20.5,17.2,30.10,SE,126,16.0,23.0,87,0.00,,,0.00,meteohub,2013-02-11 01:05:00,
2013-02-10 20:10:00,20.5,17.2,30.10,SE,135,16.0,23.0,87,0.00,,,0.00,meteohub,2013-02-11 01:10:00,
2013-02-10 20:15:00,20.1,16.7,30.10,SE,127,20.0,23.0,86,0.00,,,0.00,meteohub,2013-02-11 01:15:00,
2013-02-10 20:20:00,19.9,16.5,30.10,SSE,147,15.0,23.0,86,0.00,,,0.00,meteohub,2013-02-11 01:20:00,
2013-02-10 20:25:00,19.9,16.5,30.11,SE,139,12.0,23.0,86,0.00,,,0.00,meteohub,2013-02-11 01:25:00,
2013-02-10 20:31:00,19.9,16.5,30.11,SSE,160,9.0,21.0,86,0.00,,,0.00,meteohub,2013-02-11 01:31:00,
2013-02-10 20:36:00,19.8,16.3,30.11,SE,127,17.0,19.0,86,0.00,,,0.00,meteohub,2013-02-11 01:36:00,
2013-02-10 20:41:00,19.8,16.0,30.11,SE,134,16.0,18.0,85,0.00,,,0.00,meteohub,2013-02-11 01:41:00,
2013-02-10 20:46:00,19.8,16.0,30.11,SE,132,9.0,18.0,85,0.00,,,0.00,meteohub,2013-02-11 01:46:00,
2013-02-10 20:51:00,19.8,16.0,30.11,SE,133,11.0,18.0,85,0.00,,,0.00,meteohub,2013-02-11 01:51:00,
2013-02-10 20:56:00,19.8,16.0,30.11,ESE,123,11.0,18.0,85,0.00,,,0.00,meteohub,2013-02-11 01:56:00,
2013-02-10 21:01:00,19.8,16.3,30.12,SE,124,13.0,16.0,86,0.00,,,0.00,meteohub,2013-02-11 02:01:00,
2013-02-10 21:06:00,19.9,16.5,30.12,ESE,122,15.0,16.0,86,0.00,,,0.00,meteohub,2013-02-11 02:06:00,
2013-02-10 21:11:00,19.9,16.5,30.12,SE,139,10.0,17.0,86,0.00,,,0.00,meteohub,2013-02-11 02:11:00,
2013-02-10 21:17:00,20.1,16.9,30.12,SE,133,14.0,17.0,87,0.00,,,0.00,meteohub,2013-02-11 02:17:00,
2013-02-10 21:22:00,19.9,16.5,30.13,SE,127,14.0,19.0,86,0.00,,,0.00,meteohub,2013-02-11 02:22:00,
2013-02-10 21:27:00,19.9,16.7,30.13,SE,135,14.0,19.0,87,0.00,,,0.00,meteohub,2013-02-11 02:27:00,
2013-02-10 21:32:00,19.8,16.5,30.13,SE,130,14.0,18.0,87,0.00,,,0.00,meteohub,2013-02-11 02:32:00,
2013-02-10 21:37:00,19.8,16.5,30.13,SE,139,13.0,18.0,87,0.00,,,0.00,meteohub,2013-02-11 02:37:00,
2013-02-10 21:42:00,19.6,16.3,30.13,SE,128,18.0,20.0,87,0.00,,,0.00,meteohub,2013-02-11 02:42:00,
2013-02-10 21:47:00,19.6,16.3,30.13,SE,126,11.0,21.0,87,0.00,,,0.00,meteohub,2013-02-11 02:47:00,
2013-02-10 21:52:00,19.6,16.3,30.13,SE,129,12.0,21.0,87,0.00,,,0.00,meteohub,2013-02-11 02:52:00,
2013-02-10 21:57:00,19.6,16.3,30.14,SE,127,15.0,21.0,87,0.00,,,0.00,meteohub,2013-02-11 02:57:00,
2013-02-10 22:02:00,19.6,16.3,30.14,SE,131,15.0,18.0,87,0.00,,,0.00,meteohub,2013-02-11 03:02:00,
2013-02-10 22:07:00,19.4,16.2,30.14,SE,132,13.0,18.0,87,0.00,,,0.00,meteohub,2013-02-11 03:07:00,
2013-02-10 22:12:00,19.4,16.2,30.14,SE,132,13.0,18.0,87,0.00,,,0.00,meteohub,2013-02-11 03:12:00,
2013-02-10 22:17:00,19.4,16.2,30.14,SE,131,15.0,18.0,87,0.00,,,0.00,meteohub,2013-02-11 03:17:00,
2013-02-10 22:22:00,19.4,16.2,30.14,SSE,148,11.0,19.0,87,0.00,,,0.00,meteohub,2013-02-11 03:22:00,
2013-02-10 22:27:00,19.2,16.0,30.14,SE,133,13.0,19.0,87,0.00,,,0.00,meteohub,2013-02-11 03:27:00,
2013-02-10 22:32:00,19.2,16.0,30.14,ESE,117,11.0,17.0,87,0.00,,,0.00,meteohub,2013-02-11 03:32:00,
2013-02-10 22:37:00,19.2,16.0,30.15,ESE,121,13.0,18.0,87,0.00,,,0.00,meteohub,2013-02-11 03:37:00,
2013-02-10 22:42:00,19.2,16.0,30.15,SE,128,16.0,18.0,87,0.00,,,0.00,meteohub,2013-02-11 03:42:00,
2013-02-10 22:47:00,19.4,16.2,30.15,SE,127,15.0,19.0,87,0.00,,,0.00,meteohub,2013-02-11 03:47:00,
2013-02-10 22:52:00,19.2,16.0,30.15,SSE,148,12.0,19.0,87,0.00,,,0.00,meteohub,2013-02-11 03:52:00,
2013-02-10 22:57:00,19.2,16.0,30.15,SE,129,15.0,19.0,87,0.00,,,0.00,meteohub,2013-02-11 03:57:00,
2013-02-10 23:02:00,19.2,16.0,30.15,SE,127,12.0,17.0,87,0.00,,,0.00,meteohub,2013-02-11 04:02:00,
2013-02-10 23:07:00,19.2,16.0,30.16,SE,128,16.0,18.0,87,0.00,,,0.00,meteohub,2013-02-11 04:07:00,
2013-02-10 23:12:00,19.2,16.0,30.16,SE,129,17.0,18.0,87,0.00,,,0.00,meteohub,2013-02-11 04:12:00,
2013-02-10 23:17:00,19.2,16.0,30.16,SE,135,13.0,19.0,87,0.00,,,0.00,meteohub,2013-02-11 04:17:00,
2013-02-10 23:22:00,19.2,16.0,30.16,SSE,160,12.0,19.0,87,0.00,,,0.00,meteohub,2013-02-11 04:22:00,
2013-02-10 23:27:00,19.2,16.0,30.17,SE,125,16.0,20.0,87,0.00,,,0.00,meteohub,2013-02-11 04:27:00,
2013-02-10 23:32:00,19.0,15.8,30.17,SSE,153,8.0,20.0,87,0.00,,,0.00,meteohub,2013-02-11 04:32:00,
2013-02-10 23:38:00,19.0,15.8,30.17,SE,144,14.0,20.0,87,0.00,,,0.00,meteohub,2013-02-11 04:38:00,
2013-02-10 23:43:00,19.0,15.8,30.17,SE,127,13.0,18.0,87,0.00,,,0.00,meteohub,2013-02-11 04:43:00,
2013-02-10 23:48:00,19.0,15.8,30.17,SSE,159,7.0,18.0,87,0.00,,,0.00,meteohub,2013-02-11 04:48:00,
2013-02-10 23:53:00,19.2,16.0,30.17,SE,139,7.0,16.0,87,0.00,,,0.00,meteohub,2013-02-11 04:53:00,
2013-02-10 23:58:00,19.2,16.0,30.17,SE,124,18.0,18.0,87,0.00,,,0.00,meteohub,2013-02-11 04:58:00,